Retour au catalogue

METEOR 2-11 DEB

ActifPO
NORAD 42453·DEBRIS·🇷🇺 Russia

Lancé Jul 5, 1984 depuis Plesetsk Cosmodrome

Loading…

Prochains Passages (prochaines 24 heures)

TLE

PériméSource: Space-Track

Époque: Aug 30, 2026, 12:38 UTC

1 42453U 84072P   26242.52696735  .00001241  00000-0  85838-3 0  9991
2 42453  82.5303 316.5212 0011981 134.8729 225.3414 13.98328614587753

Suivez METEOR 2-11 DEB en temps réel avec AllMySat

Download on the App Store